Date String (YYYY-MM-DD hh:mm:ss) UTC,Instrument flags,absolute air pressure of the measurement (hPa),sample flow rate (lpm),inlet stack bypass flow (lpm),air temperature of the measurement (°C),ambient temperature measured by the external sensor (°C),aerosol sample conditioner tube jacket temperature (°C),OPC LED temperature (°C),internal box temperature (°C),relative humidity of the measurement (%),span deviation,mass concentration of particles derived from Lorenz-Mie calculation of OPC scattering (μg/m³),mass concentration of particles derived from Lorenz-Mie calculation of OPC scattering (μg/m³),mass concentration of particles derived from Lorenz-Mie calculation of OPC scattering (μg/m³)
DateTimeUTC,F1_M11,P_M11,Q1_M11,Q2_M11,T1_M11,T2_M11,T3_M11,T4_M11,T5_M11,U1_M11,ZSPAN_M11,X2_M11,X0_M11,X1_M11
2024-04-02 06:00:00,SystemResetWarning,0828.0,5.00,000.00,020.0,019.3,000.0,028.5,021.8,25.3,0000.0,0003.12,0003.20,0002.98
2024-04-02 06:01:00,SystemResetWarning,0828.1,5.00,000.00,020.0,019.3,000.0,028.5,021.8,25.3,0000.0,0003.10,0003.16,0002.98
2024-04-02 06:02:00,SystemResetWarning,0828.1,5.00,000.00,020.0,019.3,000.0,028.5,021.7,25.4,0000.0,0003.09,0003.06,0002.98
2024-04-02 06:03:00,SystemResetWarning,0828.2,5.00,000.00,019.9,019.3,000.0,028.5,021.7,25.4,0000.0,0003.09,0003.05,0002.99
2024-04-02 06:04:00,SystemResetWarning,0828.2,5.00,000.00,019.9,019.3,000.0,028.5,021.7,25.3,0000.0,0003.08,0003.00,0002.98
2024-04-02 06:05:00,SystemResetWarning,0828.2,5.01,000.00,019.9,019.3,000.0,028.5,021.7,25.3,0000.0,0003.10,0003.04,0003.00
2024-04-02 06:06:00,SystemResetWarning,0828.2,5.01,000.00,019.9,019.3,000.0,028.5,021.7,25.2,0000.0,0003.13,0003.08,0003.01
2024-04-02 06:07:00,SystemResetWarning,0828.2,5.00,000.00,019.9,019.3,000.0,028.5,021.7,25.2,0000.0,0003.14,0003.13,0003.02
2024-04-02 06:08:00,SystemResetWarning,0828.2,4.99,000.00,019.9,019.3,000.0,028.5,021.7,25.2,0000.0,0003.16,0003.20,0003.04
2024-04-02 06:09:00,SystemResetWarning,0828.2,5.00,000.00,019.9,019.3,000.0,028.5,021.7,25.2,0000.0,0003.16,0003.21,0003.06
2024-04-02 06:10:00,SystemResetWarning,0828.2,5.00,000.00,019.9,019.3,000.0,028.5,021.7,25.2,0000.0,0003.16,0003.22,0003.07
2024-04-02 06:11:00,SystemResetWarning,0828.2,4.99,000.00,019.9,019.3,000.0,028.5,021.7,25.2,0000.0,0003.16,0003.16,0003.06
2024-04-02 06:12:00,SystemResetWarning,0828.2,4.99,000.00,019.9,019.3,000.0,028.5,021.7,25.3,0000.0,0003.16,0003.18,0003.06
2024-04-02 06:13:00,SystemResetWarning,0828.3,5.00,000.00,019.9,019.3,000.0,028.5,021.7,25.3,0000.0,0003.17,0003.21,0003.07
2024-04-02 06:14:00,SystemResetWarning,0828.3,5.00,000.00,019.9,019.3,000.0,028.5,021.7,25.2,0000.0,0003.18,0003.28,0003.07
2024-04-02 06:15:00,SystemResetWarning,0828.3,5.00,000.00,019.9,019.3,000.0,028.5,021.7,25.2,0000.0,0003.21,0003.40,0003.09
2024-04-02 06:16:00,SystemResetWarning,0828.3,5.00,000.00,019.9,019.3,000.0,028.5,021.7,25.1,0000.0,0003.20,0003.38,0003.09
2024-04-02 06:17:00,SystemResetWarning,0828.3,5.00,000.00,019.9,019.3,000.0,028.5,021.7,25.1,0000.0,0003.19,0003.30,0003.10
2024-04-02 06:18:00,SystemResetWarning,0828.3,5.00,000.00,019.9,019.2,000.0,028.5,021.7,25.2,0000.0,0003.17,0003.22,0003.10
2024-04-02 06:19:00,SystemResetWarning,0828.3,5.00,000.00,019.9,019.2,000.0,028.5,021.7,25.2,0000.0,0003.18,0003.22,0003.10
2024-04-02 06:20:00,SystemResetWarning,0828.3,5.00,000.00,019.9,019.2,000.0,028.5,021.7,25.3,0000.0,0003.19,0003.25,0003.11
2024-04-02 06:21:00,SystemResetWarning,0828.3,5.00,000.00,019.9,019.2,000.0,028.5,021.7,25.3,0000.0,0003.18,0003.15,0003.10
2024-04-02 06:22:00,SystemResetWarning,0828.3,4.99,000.00,019.9,019.2,000.0,028.5,021.7,25.3,0000.0,0003.18,0003.13,0003.11
2024-04-02 06:23:00,SystemResetWarning,0828.3,5.00,000.00,019.9,019.2,000.0,028.5,021.7,25.3,0000.0,0003.18,0003.09,0003.12
2024-04-02 06:24:00,SystemResetWarning,0828.3,5.00,000.00,019.9,019.2,000.0,028.5,021.7,25.3,0000.0,0003.19,0003.10,0003.12
2024-04-02 06:25:00,SystemResetWarning,0828.3,5.00,000.00,019.9,019.1,000.0,028.5,021.6,25.4,0000.0,0003.20,0003.13,0003.13
2024-04-02 06:26:00,SystemResetWarning,0828.3,5.00,000.00,019.9,019.1,000.0,028.4,021.6,25.4,0000.0,0003.20,0003.09,0003.14
2024-04-02 06:27:00,SystemResetWarning,0828.3,5.00,000.00,019.8,019.1,000.0,028.4,021.6,25.5,0000.0,0003.21,0003.09,0003.15
2024-04-02 06:28:00,SystemResetWarning,0828.3,5.00,000.00,019.8,019.1,000.0,028.4,021.6,25.5,0000.0,0003.21,0003.08,0003.15
2024-04-02 06:29:00,SystemResetWarning,0828.4,5.00,000.00,019.8,019.1,000.0,028.4,021.6,25.5,0000.0,0003.22,0003.11,0003.16
2024-04-02 06:30:00,SystemResetWarning,0828.4,5.00,000.00,019.8,019.1,000.0,028.4,021.6,25.6,0000.0,0003.24,0003.16,0003.17
2024-04-02 06:31:00,SystemResetWarning,0828.3,5.00,000.00,019.8,019.1,000.0,028.4,021.6,25.6,0000.0,0003.26,0003.24,0003.17
2024-04-02 06:32:00,SystemResetWarning,0828.3,5.00,000.00,019.8,019.2,000.0,028.4,021.6,26.1,0000.0,0003.27,0003.28,0003.18
2024-04-02 06:33:00,SystemResetWarning,0828.3,5.00,000.00,019.8,019.2,000.0,028.4,021.6,26.0,0000.0,0003.27,0003.32,0003.18
2024-04-02 06:34:00,SystemResetWarning,0828.4,5.00,000.00,019.8,019.2,000.0,028.4,021.6,25.6,0000.0,0003.28,0003.42,0003.18
2024-04-02 06:35:00,SystemResetWarning,0828.3,5.00,000.00,019.8,019.2,000.0,028.4,021.6,25.5,0000.0,0003.28,0003.43,0003.18
2024-04-02 06:36:00,SystemResetWarning,0828.3,5.00,000.00,019.8,019.2,000.0,028.4,021.6,25.6,0000.0,0003.28,0003.41,0003.18
2024-04-02 06:37:00,SystemResetWarning,0828.4,5.00,000.00,019.8,019.2,000.0,028.4,021.6,25.6,0000.0,0003.30,0003.54,0003.19
2024-04-02 06:38:00,SystemResetWarning,0828.3,5.00,000.00,019.8,019.2,000.0,028.4,021.6,25.6,0000.0,0003.30,0003.59,0003.18
2024-04-02 06:39:00,SystemResetWarning,0828.3,5.00,000.00,019.8,019.2,000.0,028.4,021.6,25.7,0000.0,0003.31,0003.62,0003.18
2024-04-02 06:40:00,SystemResetWarning,0828.3,5.00,000.00,019.8,019.2,000.0,028.4,021.6,25.7,0000.0,0003.32,0003.62,0003.19
2024-04-02 06:41:00,SystemResetWarning,0828.3,5.00,000.00,019.8,019.1,000.0,028.4,021.6,25.7,0000.0,0003.32,0003.63,0003.20
2024-04-02 06:42:00,SystemResetWarning,0828.3,5.00,000.00,019.8,019.1,000.0,028.4,021.6,25.7,0000.0,0003.31,0003.53,0003.20
2024-04-02 06:43:00,SystemResetWarning,0828.4,4.99,000.00,019.8,019.1,000.0,028.4,021.6,25.8,0000.0,0003.31,0003.50,0003.21
2024-04-02 06:44:00,SystemResetWarning,0828.3,4.99,000.00,019.8,019.1,000.0,028.4,021.6,25.7,0000.0,0003.33,0003.53,0003.22
2024-04-02 06:45:00,SystemResetWarning,0828.3,5.00,000.00,019.8,019.0,000.0,028.4,021.6,25.7,0000.0,0003.34,0003.51,0003.22
2024-04-02 06:46:00,SystemResetWarning,0828.3,5.01,000.00,019.8,019.0,000.0,028.4,021.5,25.8,0000.0,0003.34,0003.50,0003.23
2024-04-02 06:47:00,SystemResetWarning,0828.3,5.01,000.00,019.8,019.0,000.0,028.4,021.5,25.9,0000.0,0003.33,0003.49,0003.23
2024-04-02 06:48:00,SystemResetWarning,0828.3,4.99,000.00,019.7,019.0,000.0,028.4,021.5,25.9,0000.0,0003.31,0003.34,0003.23
2024-04-02 06:49:00,SystemResetWarning,0828.3,4.99,000.00,019.7,019.0,000.0,028.4,021.5,26.0,0000.0,0003.29,0003.24,0003.22
2024-04-02 06:50:00,SystemResetWarning,0828.3,4.99,000.00,019.7,019.0,000.0,028.3,021.5,26.2,0000.0,0003.28,0003.22,0003.22
2024-04-02 06:51:00,SystemResetWarning,0828.3,5.00,000.00,019.7,019.0,000.0,028.3,021.5,26.4,0000.0,0003.27,0003.18,0003.21
2024-04-02 06:52:00,SystemResetWarning,0828.4,5.00,000.00,019.7,019.0,000.0,028.3,021.5,26.4,0000.0,0003.25,0003.15,0003.19
2024-04-02 06:53:00,SystemResetWarning,0828.3,5.00,000.00,019.7,018.9,000.0,028.3,021.5,26.5,0000.0,0003.25,0003.18,0003.17
2024-04-02 06:54:00,SystemResetWarning,0828.4,5.00,000.00,019.7,018.9,000.0,028.3,021.5,26.5,0000.0,0003.24,0003.24,0003.17
2024-04-02 06:55:00,SystemResetWarning,0828.3,5.00,000.00,019.7,018.9,000.0,028.3,021.5,26.5,0000.0,0003.23,0003.24,0003.16
2024-04-02 06:56:00,SystemResetWarning,0828.3,5.00,000.00,019.7,018.9,000.0,028.3,021.5,26.5,0000.0,0003.22,0003.25,0003.16
2024-04-02 06:57:00,SystemResetWarning,0828.3,5.00,000.00,019.7,018.9,000.0,028.3,021.5,26.4,0000.0,0003.22,0003.28,0003.15
2024-04-02 06:58:00,SystemResetWarning,0828.3,4.99,000.00,019.7,018.9,000.0,028.3,021.4,26.4,0000.0,0003.21,0003.23,0003.14
2024-04-02 06:59:00,SystemResetWarning,0828.3,4.99,000.00,019.7,018.9,000.0,028.3,021.5,26.4,0000.0,0003.21,0003.20,0003.14
